Location: Balsareny
(41.8670°N, 1.8830°E)
Time: 08:48:29
(UTC+01:00)

Envisat - Visible Passes

Search period start: 17 February 2019 00:00
Search period end: 27 February 2019 00:00
Orbit: 764 x 766 km, 98.2° (Epoch: 16 February)

Date Brightness Start Highest point End Pass type
(mag) Time Alt. Az. Time Alt. Az. Time Alt. Az.
17 Feb 6.2 07:10:49 10° NE 07:13:47 15° E 07:16:45 10° SE visible
17 Feb 4.1 20:03:09 10° S 20:08:01 46° W 20:12:54 10° NNW visible
18 Feb 2.9 19:26:09 10° SSE 19:31:13 81° ENE 19:36:20 10° N visible
18 Feb 6.1 21:09:06 10° WSW 21:10:51 12° W 21:12:34 10° WNW visible
19 Feb 3.5 18:50:00 10° SE 18:54:38 37° ENE 18:59:16 10° N visible
19 Feb 5.1 20:29:28 10° SSW 20:33:42 26° W 20:37:58 10° NW visible
20 Feb 6.5 07:00:32 10° ENE 07:02:27 12° E 07:04:20 10° ESE visible
20 Feb 3.6 19:51:47 10° S 19:56:46 58° W 20:01:48 10° NNW visible
21 Feb 3.0 19:15:02 10° SSE 19:20:02 64° ENE 19:25:04 10° N visible
21 Feb 5.9 20:56:37 10° SW 20:59:29 15° W 21:02:23 10° NW visible
22 Feb 4.7 20:17:52 10° SSW 20:22:25 33° W 20:27:00 10° NNW visible
23 Feb 3.2 19:40:29 10° S 19:45:32 74° WSW 19:50:39 10° NNW visible
24 Feb 3.2 19:03:59 10° SE 19:08:52 51° ENE 19:13:47 10° N visible
24 Feb 5.7 20:44:35 10° SW 20:48:10 19° W 20:51:45 10° NW visible
25 Feb 4.3 20:06:22 10° SSW 20:11:08 42° W 20:15:58 10° NNW visible
26 Feb 3.0 19:29:15 10° SSE 19:34:20 88° ENE 19:39:27 10° NNW visible
26 Feb 6.3 21:13:10 10° W 21:14:01 10° W 21:14:51 10° WNW visible
